FW8658 Weather Reports


time (UTC)temp
C
wind
direction
speed
KPH
gust
KPH
rain 1hr
cm
rain 24hr
cm
rain mn
cm
humidity
%
barometer
mb
20260503223930 30 330 8.0 17.7 0.00 0.00 0.00 35 1007.9
20260503223427 30 10 8.0 9.7 0.00 0.00 0.00 33 1007.8
20260503222922 30 326 12.9 17.7 0.00 0.00 0.00 35 1007.9
20260503222421 30 28 4.8 12.9 0.00 0.00 0.00 35 1008.0
20260503221919 30 66 4.8 17.7 0.00 0.00 0.00 34 1008.2
20260503221417 30 325 17.7 22.5 0.00 0.00 0.00 34 1008.4
20260503220913 30 7 4.8 8.0 0.00 0.00 0.00 38 1008.3
20260503220410 30 2 11.3 14.5 0.00 0.00 0.00 37 1008.5
20260503215907 30 15 3.2 4.8 0.00 0.00 0.00 39 1008.4
20260503215404 30 353 11.3 14.5 0.00 0.00 0.00 37 1008.4
20260503214902 30 7 4.8 4.8 0.00 0.00 0.00 38 1008.6
20260503214359 30 310 8.0 22.5 0.00 0.00 0.00 41 1008.9
20260503213856 30 349 9.7 12.9 0.00 0.00 0.00 39 1008.6
20260503213354 30 17 8.0 14.5 0.00 0.00 0.00 39 1009.0
20260503212850 30 2 0.0 14.5 0.00 0.00 0.00 41 1008.7
20260503212348 30 18 9.7 12.9 0.00 0.00 0.00 40 1009.0
20260503211845 29 16 3.2 17.7 0.00 0.00 0.00 40 1009.1
20260503211342 30 51 4.8 8.0 0.00 0.00 0.00 43 1009.0
20260503210837 29 14 4.8 19.3 0.00 0.00 0.00 44 1009.0
20260503210335 29 336 8.0 14.5 0.00 0.00 0.00 41 1009.0
20260503205829 29 18 6.4 22.5 0.00 0.00 0.00 43 1009.0
20260503205326 28 335 8.0 17.7 0.00 0.00 0.00 45 1009.1
20260503204823 28 349 8.0 19.3 0.00 0.00 0.00 46 1009.3
20260503204320 28 5 11.3 17.7 0.00 0.00 0.00 45 1009.3
20260503203817 28 287 9.7 12.9 0.00 0.00 0.00 47 1009.3
20260503203315 28 351 11.3 22.5 0.00 0.00 0.00 45 1009.2
20260503202812 28 10 14.5 19.3 0.00 0.00 0.00 47 1009.5
20260503202310 28 343 6.4 12.9 0.00 0.00 0.00 47 1009.6
20260503201808 28 80 0.0 17.7 0.00 0.00 0.00 54 1009.5
20260503201304 28 30 3.2 9.7 0.00 0.00 0.00 50 1009.5
20260503200802 27 335 4.8 12.9 0.00 0.00 0.00 50 1009.6
20260503200257 27 9 14.5 17.7 0.00 0.00 0.00 50 1009.7
20260503195755 28 345 11.3 14.5 0.00 0.00 0.00 50 1009.8
20260503195251 28 19 14.5 22.5 0.00 0.00 0.00 49 1009.9
20260503194749 27 36 4.8 17.7 0.00 0.00 0.00 51 1009.9
20260503194245 27 348 12.9 19.3 0.00 0.00 0.00 50 1010.0
20260503193741 27 359 3.2 9.7 0.00 0.00 0.00 50 1010.1
20260503193237 27 42 8.0 14.5 0.00 0.00 0.00 51 1010.1
20260503192733 26 31 9.7 12.9 0.00 0.00 0.00 53 1010.0
20260503192228 26 16 14.5 19.3 0.00 0.00 0.00 52 1010.3
20260503191725 26 356 8.0 17.7 0.00 0.00 0.00 54 1010.1
20260503191222 26 13 9.7 12.9 0.00 0.00 0.00 53 1010.2
20260503190719 27 348 11.3 14.5 0.00 0.00 0.00 54 1010.4
20260503190216 26 39 6.4 14.5 0.00 0.00 0.00 54 1010.3
20260503185713 25 343 11.3 14.5 0.00 0.00 0.00 53 1010.7
20260503185208 25 14 9.7 14.5 0.00 0.00 0.00 53 1010.6
20260503184703 25 4 9.7 17.7 0.00 0.00 0.00 55 1010.5
20260503184200 25 16 8.0 22.5 0.00 0.00 0.00 54 1010.4
20260503183656 25 328 8.0 19.3 0.00 0.00 0.00 54 1010.6
20260503183154 25 11 12.9 19.3 0.00 0.00 0.00 55 1010.6
20260503182652 25 349 17.7 24.1 0.00 0.00 0.00 55 1010.6
20260503182150 25 25 14.5 17.7 0.00 0.00 0.00 56 1010.7
20260503181646 25 345 6.4 19.3 0.00 0.00 0.00 57 1010.9
20260503181143 25 1 6.4 9.7 0.00 0.00 0.00 57 1011.0
20260503180640 24 35 3.2 14.5 0.00 0.00 0.00 56 1010.9
20260503180138 24 336 6.4 12.9 0.00 0.00 0.00 57 1010.9
20260503175635 24 358 12.9 17.7 0.00 0.00 0.00 57 1010.8
20260503175132 23 12 11.3 14.5 0.00 0.00 0.00 59 1010.9
20260503174628 23 352 9.7 12.9 0.00 0.00 0.00 58 1011.0
20260503174126 23 315 16.1 19.3 0.00 0.00 0.00 58 1011.1
20260503173620 23 332 17.7 22.5 0.00 0.00 0.00 57 1011.1
20260503173117 23 9 14.5 17.7 0.00 0.00 0.00 58 1011.1
20260503172614 23 319 11.3 14.5 0.00 0.00 0.00 58 1011.0
20260503172112 22 20 4.8 17.7 0.00 0.00 0.00 60 1011.3
20260503171608 22 3 12.9 17.7 0.00 0.00 0.00 60 1011.3
20260503171106 22 322 14.5 17.7 0.00 0.00 0.00 61 1011.4
20260503170602 22 349 11.3 14.5 0.00 0.00 0.00 62 1011.1
20260503150954 16 328 4.8 9.7 0.00 0.00 0.00 79 1011.9
20260503150451 16 325 3.2 9.7 0.00 0.00 0.00 79 1011.9
20260503131344 13 57 0.0 0.0 0.00 0.00 0.00 88 1011.3
20260503130841 13 81 0.0 3.2 0.00 0.00 0.00 88 1011.5
20260503130338 13 49 0.0 0.0 0.00 0.00 0.00 88 1011.3
20260503110732 14 71 0.0 3.2 0.00 0.00 0.00 86 1011.9
20260503110229 13 346 0.0 3.2 0.00 0.00 0.00 86 1011.7
20260503100155 15 25 1.6 3.2 0.00 0.00 0.00 85 1011.7
20260503090115 15 283 3.2 4.8 0.00 0.00 0.00 83 1011.7
20260503081550 15 97 1.6 4.8 0.00 0.00 0.00 84 1011.8
20260503081048 15 351 4.8 4.8 0.00 0.00 0.00 85 1011.8
20260503080544 15 98 0.0 3.2 0.00 0.00 0.00 85 1012.0
20260503072518 17 84 0.0 3.2 0.00 0.00 0.00 76 1012.0
20260503072015 17 124 3.2 9.7 0.00 0.00 0.00 77 1011.9
20260503071512 16 77 0.0 8.0 0.00 0.00 0.00 82 1011.8
20260503071008 16 47 0.0 3.2 0.00 0.00 0.00 85 1011.6
20260503070505 16 47 1.6 4.8 0.00 0.00 0.00 85 1012.0
20260503054929 16 218 3.2 4.8 0.00 0.00 0.00 88 1012.6
20260503054425 16 270 4.8 4.8 0.00 0.00 0.00 88 1012.5
20260503053923 16 246 4.8 8.0 0.00 0.00 0.00 87 1012.7
20260503053420 16 251 4.8 4.8 0.00 0.00 0.00 87 1012.6
20260503052916 16 219 3.2 4.8 0.00 0.00 0.00 87 1012.5
20260503052414 16 232 3.2 4.8 0.00 0.00 0.00 86 1012.7
20260503051910 16 246 4.8 8.0 0.00 0.00 0.00 86 1012.4
20260503051406 16 358 1.6 3.2 0.00 0.00 0.00 85 1012.3
20260503050904 17 235 3.2 4.8 0.00 0.00 0.00 84 1012.3
20260503050359 17 264 4.8 4.8 0.00 0.00 0.00 84 1012.7
20260503045857 17 278 3.2 4.8 0.00 0.00 0.00 83 1012.4
20260503045354 17 214 1.6 4.8 0.00 0.00 0.00 83 1012.5
20260503044851 17 237 3.2 4.8 0.00 0.00 0.00 82 1012.2
20260503044348 17 253 1.6 4.8 0.00 0.00 0.00 83 1012.3
20260503043845 17 293 1.6 3.2 0.00 0.00 0.00 82 1012.1
20260503043342 18 236 1.6 3.2 0.00 0.00 0.00 81 1012.3
20260503042838 18 242 3.2 4.8 0.00 0.00 0.00 79 1012.2
20260503042335 18 240 3.2 3.2 0.00 0.00 0.00 79 1012.2
20260503041831 18 109 1.6 3.2 0.00 0.00 0.00 79 1012.1
20260503041328 18 243 3.2 4.8 0.00 0.00 0.00 77 1012.0
20260503040826 18 240 3.2 4.8 0.00 0.00 0.00 76 1012.0
20260503040324 19 260 3.2 4.8 0.00 0.00 0.00 76 1012.1
20260503035820 19 286 1.6 3.2 0.00 0.00 0.00 75 1011.7
20260503035317 19 46 0.0 3.2 0.00 0.00 0.00 74 1011.6
20260503034815 20 233 1.6 3.2 0.00 0.00 0.00 73 1011.5
20260503034312 20 72 1.6 3.2 0.00 0.00 0.00 73 1011.2
20260503033809 20 37 0.0 3.2 0.00 0.00 0.00 71 1011.5
20260503033306 21 61 1.6 3.2 0.00 0.00 0.00 69 1011.3
20260503032804 21 206 0.0 3.2 0.00 0.00 0.00 67 1011.2
20260503032304 22 92 0.0 0.0 0.00 0.00 0.00 63 1011.3
20260503031759 22 169 1.6 4.8 0.00 0.00 0.00 62 1011.1
20260503031258 22 146 0.0 3.2 0.00 0.00 0.00 61 1011.1
20260503030754 22 39 0.0 3.2 0.00 0.00 0.00 59 1011.0
20260503030250 23 98 0.0 4.8 0.00 0.00 0.00 58 1010.8
20260503025747 23 52 0.0 8.0 0.00 0.00 0.00 58 1010.5
20260503025245 23 51 1.6 9.7 0.00 0.00 0.00 58 1010.2
20260503024741 23 32 3.2 9.7 0.00 0.00 0.00 58 1010.3
20260503024238 23 59 0.0 4.8 0.00 0.00 0.00 58 1010.2
20260503023735 23 23 3.2 9.7 0.00 0.00 0.00 58 1010.2
20260503023232 23 47 8.0 17.7 0.00 0.00 0.00 58 1010.0
20260503022728 23 9 4.8 8.0 0.00 0.00 0.00 58 1010.1
20260503022228 23 38 1.6 9.7 0.00 0.00 0.00 58 1009.8
20260503021725 23 36 6.4 14.5 0.00 0.00 0.00 57 1009.9
20260503021221 23 22 8.0 19.3 0.00 0.00 0.00 57 1010.3
20260503020719 23 14 11.3 22.5 0.00 0.00 0.00 57 1009.8
20260503020216 23 328 1.6 9.7 0.00 0.00 0.00 58 1010.0
20260503015713 23 352 8.0 14.5 0.00 0.00 0.00 57 1010.1
20260503015210 23 49 4.8 8.0 0.00 0.00 0.00 58 1010.0
20260503014705 23 27 4.8 8.0 0.00 0.00 0.00 56 1010.0
20260503014204 23 340 4.8 9.7 0.00 0.00 0.00 58 1010.0
20260503013701 23 34 1.6 8.0 0.00 0.00 0.00 58 1010.0
20260503013158 23 43 3.2 17.7 0.00 0.00 0.00 57 1010.0
20260503012655 23 42 3.2 9.7 0.00 0.00 0.00 57 1010.0
20260503012152 24 63 0.0 4.8 0.00 0.00 0.00 58 1010.3
20260503011648 23 330 4.8 9.7 0.00 0.00 0.00 58 1009.9
20260503011146 23 304 11.3 14.5 0.00 0.00 0.00 57 1010.3
20260503010642 23 313 4.8 8.0 0.00 0.00 0.00 57 1010.2
20260503010139 23 14 6.4 12.9 0.00 0.00 0.00 58 1009.9
20260503005636 24 315 4.8 19.3 0.00 0.00 0.00 58 1010.1
20260503005134 24 351 4.8 8.0 0.00 0.00 0.00 58 1010.2
20260503004630 24 13 8.0 12.9 0.00 0.00 0.00 58 1010.1
20260503004129 24 33 6.4 14.5 0.00 0.00 0.00 57 1010.1
20260503003625 23 357 8.0 22.5 0.00 0.00 0.00 58 1010.4
20260503003122 23 20 9.7 19.3 0.00 0.00 0.00 57 1010.2
20260503002619 24 31 3.2 9.7 0.00 0.00 0.00 59 1010.2
20260503002115 24 22 3.2 12.9 0.00 0.00 0.00 59 1010.0
20260503001611 24 53 4.8 14.5 0.00 0.00 0.00 58 1010.3
20260503001109 24 0 6.4 19.3 0.00 0.00 0.00 59 1010.3
20260503000606 24 358 17.7 22.5 0.00 0.00 0.00 58 1010.2
20260503000104 24 332 8.0 19.3 0.00 0.00 0.00 58 1010.3
20260502235600 24 352 11.3 17.7 0.00 0.00 0.00 59 1010.3
20260502235058 24 26 4.8 9.7 0.00 0.00 0.00 59 1010.3
20260502234553 23 29 9.7 19.3 0.00 0.00 0.00 59 1010.6
20260502234052 23 20 8.0 19.3 0.00 0.00 0.00 60 1010.6
20260502233551 23 36 4.8 17.7 0.00 0.00 0.00 60 1010.8
20260502233049 24 17 17.7 19.3 0.00 0.00 0.00 59 1010.8
20260502232545 23 299 3.2 12.9 0.00 0.00 0.00 59 1010.6
20260502232042 23 312 12.9 19.3 0.00 0.00 0.00 59 1010.9
20260502231539 23 17 3.2 12.9 0.00 0.00 0.00 59 1010.8
20260502231037 23 340 8.0 22.5 0.00 0.00 0.00 60 1011.1
20260502230535 23 3 14.5 19.3 0.00 0.00 0.00 60 1011.0
20260502230033 23 304 8.0 17.7 0.00 0.00 0.00 61 1011.3
20260502225528 23 18 4.8 19.3 0.00 0.00 0.00 60 1011.1
20260502225026 23 354 9.7 12.9 0.00 0.00 0.00 60 1011.5
20260502224522 23 349 6.4 9.7 0.00 0.00 0.00 61 1011.5